Location: Goodmans Corner
(38.2049°N, 120.9872°W)
Time: 18:31:34
(UTC+00:00)

Envisat - Visible Passes

Search period start: 21 October 2019 00:00
Search period end: 31 October 2019 00:00
Orbit: 764 x 766 km, 98.1° (Epoch: 21 October)

Date Brightness Start Highest point End Pass type
(mag) Time Alt. Az. Time Alt. Az. Time Alt. Az.
21 Oct 3.1 01:50:36 10° SSE 01:55:33 57° ENE 02:00:31 10° N visible
21 Oct 6.0 03:32:01 10° SW 03:34:54 15° W 03:37:47 10° WNW visible
22 Oct 4.7 02:53:15 10° SSW 02:57:51 34° W 03:02:28 10° NNW visible
23 Oct 3.1 02:15:55 10° S 02:20:59 81° WSW 02:26:06 10° NNW visible
24 Oct 3.3 01:39:32 10° SE 01:44:20 44° ENE 01:49:09 10° N visible
24 Oct 5.6 03:19:55 10° SW 03:23:31 19° W 03:27:09 10° NW visible
24 Oct 6.1 13:51:05 10° NE 13:54:25 17° E 13:57:44 10° SE visible
25 Oct 4.2 02:41:43 10° S 02:46:32 44° W 02:51:23 10° NNW visible
26 Oct 2.9 02:04:40 10° SSE 02:09:44 80° ENE 02:14:50 10° N visible
26 Oct 6.3 03:48:48 10° W 03:49:19 10° W 03:49:49 10° W visible
27 Oct 3.6 01:28:34 10° SE 01:33:08 35° ENE 01:37:43 10° N visible
27 Oct 5.3 03:08:03 10° SSW 03:12:10 25° W 03:16:18 10° NW visible
27 Oct 6.3 13:40:36 10° ENE 13:43:02 13° E 13:45:28 10° ESE visible
28 Oct 3.7 02:30:16 10° S 02:35:14 57° W 02:40:15 10° NNW visible
29 Oct 3.0 01:53:30 10° SSE 01:58:30 62° ENE 02:03:31 10° N visible
29 Oct 6.0 03:35:25 10° WSW 03:37:54 14° W 03:40:24 10° WNW visible
30 Oct 4.8 02:56:22 10° SSW 03:00:50 31° W 03:05:21 10° NW visible
